Location: New Plymouth
(39.0670°S, 174.0830°E)
Time: 16:14:29
(UTC+13:00)

SL-16 R/B - Pass Details

Date: 24 January 2019
Orbit: 842 x 846 km, 71.0° (Epoch: 15 February)

Event Time Altitude Azimuth Distance (km) Brightness Sun altitude
Rises 22:36:58 0° 320° (NW) 3,399 5.3 -18.3°
Reaches altitude 10° 22:39:31 10° 313° (NW) 2,471 4.6 -18.6°
Maximum altitude 22:44:55 44° 242° (WSW) 1,175 3.4 -19.3°
Drops below altitude 10° 22:50:22 10° 170° (S) 2,495 5.1 -20.1°
Sets 22:52:58 0° 163° (SSE) 3,436 5.8 -20.4°
